Weather History for Winchester, TN

Change the Weather History Date:

Thursday, February 21, 2013

  Actual Average (KTHA) Record (KTHA)
Temperature  
Mean Temperature 38 °F -  
Max Temperature 53 °F 57 °F 55 °F (2013)
Min Temperature 24 °F 33 °F 26 °F (2013)
Degree Days  
Heating Degree Days 26    
Moisture  
Dew Point 25 °F    
Average Humidity 61    
Maximum Humidity 93    
Minimum Humidity 24    
Precipitation  
Precipitation 0.00 in - - ()
Sea Level Pressure  
Sea Level Pressure 30.07 in    
Wind  
Wind Speed 6 mph (ESE)    
Max Wind Speed 24 mph    
Max Gust Speed 26 mph    
Visibility 9 miles    
Events      
Averages and records for this station are not official NWS values.
T = Trace of Precipitation, MM = Missing Value Source: NWS Daily Summary

Daily Weather History Graph

Daily Weather History Graph

Search for Another Location

Airport:

Trip Planner

Search our weather history database for the weather conditions in past years. The results will help you decide how hot, cold, wet, or windy it might be!

Date:

Astronomy

Feb. 21, 2013 Rise Set
Actual Time 7:23 AM EST 6:32 PM EST
Civil Twilight 6:57 AM EST 6:58 PM EST
Nautical Twilight 6:28 AM EST 7:28 PM EST
Astronomical Twilight 5:58 AM EST 7:57 PM EST
Moon 2:52 PM EST (2/21) 4:21 AM EST (2/21)
Length of Visible Light 12h 00m
Length of Day
11h 09m
Waxing Gibbous, 83% of the Moon is Illuminated
Feb 21
Waxing Gibbous
Feb 25
Full
Mar 4
Last Quarter
Mar 11
New
Mar 19
First Quarter

Hourly Weather History & Observations

Time (EST) Temp. Windchill Dew Point Humidity Pressure Visibility Wind Dir Wind Speed Gust Speed Precip Events Conditions
12:15 AM 28.4 °F 21.2 °F 19.4 °F 69% 30.19 in 10.0 mi NNE 6.9 mph - N/A   Mostly Cloudy
12:35 AM 28.4 °F - 19.4 °F 69% 30.19 in 10.0 mi Calm Calm - N/A   Clear
12:55 AM 28.4 °F 24.6 °F 17.6 °F 64% 30.19 in 10.0 mi NNW 3.5 mph - N/A   Clear
1:35 AM 28.4 °F 23.3 °F 19.4 °F 69% 30.19 in 10.0 mi NNE 4.6 mph - N/A   Scattered Clouds
1:55 AM 26.6 °F - 19.4 °F 74% 30.19 in 10.0 mi Calm Calm - N/A   Mostly Cloudy
2:15 AM 28.4 °F - 19.4 °F 69% 30.19 in 10.0 mi Calm Calm - N/A   Overcast
2:35 AM 28.4 °F - 19.4 °F 69% 30.19 in 10.0 mi Calm Calm - N/A   Overcast
2:55 AM 28.4 °F - 19.4 °F 69% 30.18 in 10.0 mi Calm Calm - N/A   Mostly Cloudy
3:15 AM 26.6 °F 22.6 °F 19.4 °F 74% 30.18 in 10.0 mi NNE 3.5 mph - N/A   Partly Cloudy
3:35 AM 26.6 °F 22.6 °F 19.4 °F 74% 30.18 in 10.0 mi NNE 3.5 mph - N/A   Clear
3:55 AM 26.6 °F - 17.6 °F 69% 30.16 in 10.0 mi Calm Calm - N/A   Clear
4:15 AM 26.6 °F - 17.6 °F 69% 30.17 in 10.0 mi Calm Calm - N/A   Clear
4:35 AM 26.6 °F - 19.4 °F 74% 30.17 in 10.0 mi Calm Calm - N/A   Partly Cloudy
4:55 AM 24.8 °F - 19.4 °F 80% 30.17 in 10.0 mi Calm Calm - N/A   Clear
5:15 AM 26.6 °F 22.6 °F 19.4 °F 74% 30.16 in 10.0 mi ENE 3.5 mph - N/A   Clear
5:35 AM 26.6 °F - 19.4 °F 74% 30.17 in 10.0 mi Calm Calm - N/A   Clear
5:55 AM 26.6 °F 22.6 °F 19.4 °F 74% 30.17 in 10.0 mi ENE 3.5 mph - N/A   Clear
6:15 AM 24.8 °F 20.5 °F 19.4 °F 80% 30.18 in 10.0 mi ENE 3.5 mph - N/A   Clear
6:55 AM 26.6 °F 22.6 °F 19.4 °F 74% 30.18 in 10.0 mi ENE 3.5 mph - N/A   Partly Cloudy
7:15 AM 26.6 °F 22.6 °F 19.4 °F 74% 30.17 in 10.0 mi NNE 3.5 mph - N/A   Unknown
7:35 AM 26.6 °F 21.2 °F 19.4 °F 74% 30.18 in 10.0 mi North 4.6 mph - N/A   Clear
7:55 AM 26.6 °F - 19.4 °F 74% 30.19 in 10.0 mi Calm Calm - N/A   Scattered Clouds
8:15 AM 26.6 °F 22.6 °F 19.4 °F 74% 30.18 in 10.0 mi ENE 3.5 mph - N/A   Overcast
8:35 AM 28.4 °F 24.6 °F 21.2 °F 74% 30.17 in 10.0 mi East 3.5 mph - N/A   Overcast
8:55 AM 30.2 °F - 21.2 °F 69% 30.18 in 10.0 mi Calm Calm - N/A   Mostly Cloudy
9:15 AM 30.2 °F - 21.2 °F 69% 30.17 in 10.0 mi Calm Calm - N/A   Partly Cloudy
9:35 AM 35.6 °F 31.7 °F 21.2 °F 56% 30.16 in 10.0 mi East 4.6 mph - N/A   Clear
9:55 AM 37.4 °F 30.8 °F 17.6 °F 45% 30.15 in 10.0 mi ESE 9.2 mph - N/A   Clear
10:15 AM 37.4 °F 32.1 °F 15.8 °F 41% 30.15 in 10.0 mi SSE 6.9 mph - N/A   Partly Cloudy
10:35 AM 39.2 °F 35.0 °F 17.6 °F 42% 30.14 in 10.0 mi ESE 5.8 mph - N/A   Partly Cloudy
10:55 AM 42.8 °F 37.5 °F 17.6 °F 36% 30.12 in 10.0 mi ESE 9.2 mph - N/A   Partly Cloudy
11:15 AM 44.6 °F 39.7 °F 17.6 °F 34% 30.11 in 10.0 mi SE 9.2 mph - N/A   Clear
11:35 AM 46.4 °F 40.1 °F 15.8 °F 29% 30.10 in 10.0 mi SE 15.0 mph - N/A   Clear
11:55 AM 48.2 °F - 17.6 °F 30% 30.09 in 10.0 mi SE 12.7 mph - N/A   Clear
12:15 PM 48.2 °F - 15.8 °F 27% 30.09 in 10.0 mi SE 13.8 mph - N/A   Clear
12:35 PM 48.2 °F - 17.6 °F 30% 30.07 in 10.0 mi SE 8.1 mph - N/A   Partly Cloudy
12:55 PM 51.8 °F - 17.6 °F 26% 30.07 in 10.0 mi East 6.9 mph - N/A   Clear
1:15 PM 51.8 °F - 15.8 °F 24% 30.07 in 10.0 mi SE 5.8 mph - N/A   Clear
1:35 PM 53.6 °F - 17.6 °F 24% 30.05 in 10.0 mi East 8.1 mph - N/A   Clear
1:55 PM 53.6 °F - 19.4 °F 26% 30.04 in 10.0 mi East 11.5 mph - N/A   Clear
2:15 PM 53.6 °F - 19.4 °F 26% 30.01 in 10.0 mi ESE 11.5 mph - N/A   Clear
2:35 PM 53.6 °F - 19.4 °F 26% 29.98 in 10.0 mi ESE 10.4 mph - N/A   Clear
2:55 PM 53.6 °F - 21.2 °F 28% 29.96 in 10.0 mi ESE 10.4 mph - N/A   Clear
3:15 PM 53.6 °F - 19.4 °F 26% 29.94 in 10.0 mi ESE 18.4 mph - N/A   Clear
3:35 PM 53.6 °F - 19.4 °F 26% 29.94 in 10.0 mi ESE 12.7 mph - N/A   Clear
3:55 PM 53.6 °F - 19.4 °F 26% 29.93 in 10.0 mi SE 9.2 mph - N/A   Clear
4:15 PM 51.8 °F - 21.2 °F 30% 29.90 in 10.0 mi SE 11.5 mph - N/A   Partly Cloudy
4:35 PM 51.8 °F - 21.2 °F 30% 29.89 in 10.0 mi SE 15.0 mph 26.5 mph N/A   Clear
4:55 PM 51.8 °F - 21.2 °F 30% 29.88 in 10.0 mi SE 11.5 mph - N/A   Mostly Cloudy
5:15 PM 51.8 °F - 28.4 °F 41% 29.98 in 9.0 mi Variable 5.8 mph - N/A   Overcast
5:35 PM 48.2 °F - 33.8 °F 58% 29.96 in 5.0 mi SSE 5.8 mph - N/A   Mostly Cloudy
5:55 PM 46.4 °F 43.5 °F 39.2 °F 76% 29.97 in 10.0 mi East 5.8 mph - N/A   Mostly Cloudy
6:15 PM 44.6 °F 39.7 °F 35.6 °F 71% 29.95 in 9.0 mi ESE 9.2 mph - N/A   Overcast
6:35 PM 44.6 °F 41.4 °F 35.6 °F 71% 29.93 in 9.0 mi East 5.8 mph - N/A   Overcast
6:55 PM 42.8 °F 38.6 °F 35.6 °F 76% 29.93 in 7.0 mi ESE 6.9 mph - N/A   Overcast
7:15 PM 42.8 °F 38.0 °F 37.4 °F 81% 29.94 in 4.0 mi SSE 8.1 mph - N/A   Overcast
7:35 PM 42.8 °F 37.5 °F 37.4 °F 81% 29.95 in 4.0 mi SE 9.2 mph - N/A   Overcast
7:55 PM 42.8 °F 38.6 °F 37.4 °F 81% 29.96 in 4.0 mi East 6.9 mph - N/A   Mostly Cloudy
8:15 PM 42.8 °F 38.6 °F 39.2 °F 87% 30.00 in 4.0 mi SE 6.9 mph - N/A   Overcast
8:35 PM 42.8 °F 35.1 °F 39.2 °F 87% 29.98 in 10.0 mi SE 16.1 mph - N/A   Overcast
8:55 PM 42.8 °F 34.3 °F 39.2 °F 87% 29.98 in 10.0 mi SE 19.6 mph - N/A   Overcast
9:15 PM 42.8 °F 34.8 °F 39.2 °F 87% 29.99 in 4.0 mi SE 17.3 mph - N/A   Overcast
9:35 PM 42.8 °F 34.8 °F 41.0 °F 93% 30.00 in 5.0 mi ESE 17.3 mph - N/A   Overcast
10:15 PM 44.6 °F 38.8 °F 42.8 °F 93% 29.97 in 7.0 mi SE 11.5 mph - N/A   Mostly Cloudy
10:35 PM 44.6 °F 37.4 °F 42.8 °F 93% 29.96 in 10.0 mi ESE 16.1 mph - N/A   Overcast
10:55 PM 44.6 °F 35.7 °F 42.8 °F 93% 29.95 in 10.0 mi SE 24.2 mph - N/A   Overcast
11:15 PM 44.6 °F 36.4 °F 41.0 °F 87% 29.93 in 10.0 mi SE 20.7 mph - N/A   Overcast
11:35 PM 44.6 °F 36.4 °F 41.0 °F 87% 29.92 in 10.0 mi SE 20.7 mph - N/A   Overcast
11:55 PM 44.6 °F 37.2 °F 41.0 °F 87% 29.92 in 10.0 mi SE 17.3 mph - N/A   Overcast